Vorticity
10 26 8 -8 3 17 17 23 3 -2 7 3 1 2 6 8 7 12 8 17 3 6 9 14 10 4 10 9 17 16 19 15 16 4 1 -1 19 26 10 6 5 8 9 7
13 22 19 16 -1 12 12 7 11 5 12 7 15 5 7 10 8 10 2 30 19 17 15 9 11 11 6 4 9 11 10 2 7 -8 6 26 10 5 6 5 6 4 4 3
3 6 6 13 -3 11 12 12 12 -5 27 -9 12 40 4 8 11 9 10 21 16 11 8 -3 8 13 11 5 3 4 7 9 9 15 12 5 6 8 3 3 3 1 1 4
10 16 12 -0 22 19 19 2 0 10 3 12 8 15 30 15 9 8 8 13 5 9 15 16 9 10 4 2 6 13 14 11 13 10 5 6 8 4 3 4 6 4 7 7
6 5 5 5 9 11 20 19 16 14 9 6 1 2 9 17 19 9 17 12 -5 0 7 11 8 16 19 26 19 17 14 8 8 8 8 8 6 4 3 4 5 7 3 7
14 9 8 4 4 11 4 7 9 12 10 11 10 15 16 13 13 25 30 27 2 2 -1 -4 8 10 7 -1 7 3 2 7 6 9 9 7 2 -0 4 3 5 5 8 7
9 9 9 10 3 3 3 2 10 7 8 15 11 11 9 10 11 10 8 10 17 25 17 14 19 4 4 9 5 15 0 11 12 10 9 10 9 6 7 5 6 7 6 7
12 11 12 12 11 12 8 3 3 3 6 3 3 5 6 7 7 8 13 19 12 9 12 15 36 12 3 3 3 -4 1 12 10 6 4 1 2 5 5 7 9 10 11 9
21 16 7 11 16 12 8 13 16 7 4 2 2 3 1 3 4 6 7 7 9 9 14 16 11 7 15 24 14 11 13 19 19 3 7 7 8 10 15 13 12 11 9 9
19 20 12 10 13 12 15 13 13 10 14 13 11 10 8 10 10 10 7 9 12 10 10 11 11 10 10 11 13 14 13 12 13 15 17 15 14 13 10 10 10 11 11 13
22 29 20 14 11 9 14 14 15 17 14 14 13 11 12 8 9 10 12 11 10 11 11 11 10 11 12 11 11 10 10 10 10 9 10 11 11 11 11 12 13 12 11 11
23 32 25 22 17 8 7 9 8 10 11 14 14 16 17 16 18 15 4 9 10 9 9 10 11 12 11 10 11 11 11 10 11 11 11 11 11 11 11 11 11 8 9 9
8 17 27 30 26 9 6 21 7 12 10 7 12 12 12 11 9 12 14 14 9 11 10 9 9 9 9 10 11 12 11 9 8 7 9 11 13 13 11 8 9 9 12 14
8 9 8 13 29 27 32 19 4 5 21 9 -2 4 14 14 12 10 10 11 11 11 12 12 11 10 8 9 8 6 7 6 10 13 13 13 12 9 8 9 9 10 13 14
8 9 9 10 11 18 26 25 18 20 9 16 23 16 8 6 12 13 14 13 9 10 10 10 11 13 13 11 9 8 6 7 8 6 8 13 13 12 12 11 11 11 11 11
8 8 8 9 12 11 13 18 29 28 17 15 9 9 18 14 6 8 15 5 4 13 10 7 8 9 10 10 12 13 13 10 8 8 5 8 7 9 11 12 9 14 8 10
9 10 8 8 8 8 8 13 14 26 17 13 27 19 11 7 25 11 2 4 5 8 9 13 18 14 8 8 11 13 13 12 12 15 11 7 10 8 6 14 13 7 6 10
9 10 10 8 10 10 9 7 11 14 19 19 13 10 29 19 13 11 20 19 14 10 1 7 9 9 14 20 18 15 14 15 13 12 13 13 12 13 10 14 8 8 11 8
9 11 10 8 9 11 11 10 8 9 17 17 17 14 15 23 27 14 21 22 11 4 25 16 16 15 6 7 13 13 14 16 16 16 18 18 15 16 15 10 19 13 6 13
9 11 11 13 9 9 13 12 9 10 9 12 17 19 12 14 16 23 13 17 19 15 12 8 13 12 15 8 4 3 8 7 11 12 13 14 14 13 9 9 7 4 2 2
9 12 12 12 12 11 11 10 13 10 10 9 9 9 7 12 10 20 19 14 12 15 15 15 15 16 14 12 15 17 16 14 12 11 11 11 12 11 13 15 15 15 16 17
9 11 12 14 13 12 11 12 12 11 11 13 12 10 11 13 13 15 12 21 20 21 14 16 19 19 15 6 6 10 13 15 15 14 12 12 13 13 11 9 10 11 11 11
10 13 12 14 11 11 12 13 12 12 9 13 13 10 14 13 18 27 19 11 12 33 15 16 17 20 5 5 10 11 10 13 11 11 11 11 9 10 8 7 6 6 8 7
10 13 12 12 13 12 12 11 11 14 12 10 15 12 16 13 4 18 21 21 13 10 14 18 14 19 25 24 19 15 13 10 9 11 16 18 14 12 12 11 12 19 20 22
10 12 11 14 13 11 12 11 10 13 15 12 8 9 11 18 21 20 10 19 35 0 -6 8 3 7 7 16 18 14 13 14 14 14 11 8 8 8 11 13 13 11 10 10
11 11 12 13 11 12 12 12 9 13 13 15 8 7 11 14 20 17 12 27 36 33 19 7 16 18 13 11 12 13 11 11 12 16 15 12 12 11 12 13 13 13 11 11
9 12 12 14 12 12 12 10 12 11 13 10 10 13 12 12 14 23 16 16 34 17 22 18 11 9 13 13 14 14 13 12 13 14 13 13 13 13 12 11 12 14 13 12
Height
5608 5609 5611 5614 5617 5619 5620 5623 5626 5629 5632 5635 5639 5642 5645 5650 5654 5657 5660 5663 5666 5670 5673 5678 5682 5687 5691 5696 5701 5705 5710 5714 5716 5718 5720 5720 5722 5722 5723 5723 5722 5721 5721 5719
5610 5612 5614 5616 5618 5619 5621 5623 5624 5627 5628 5630 5633 5636 5639 5642 5645 5647 5652 5655 5659 5664 5668 5671 5675 5680 5684 5688 5692 5696 5700 5704 5706 5709 5709 5712 5712 5712 5715 5714 5713 5712 5712 5711
5611 5612 5614 5616 5617 5617 5619 5621 5623 5626 5627 5629 5631 5630 5633 5636 5639 5642 5645 5649 5653 5656 5660 5665 5668 5671 5675 5679 5684 5687 5691 5693 5697 5698 5701 5702 5703 5704 5704 5705 5704 5704 5703 5702
5610 5611 5613 5614 5614 5615 5617 5619 5621 5623 5624 5627 5629 5630 5631 5633 5636 5639 5641 5644 5648 5651 5654 5658 5661 5664 5668 5672 5675 5679 5681 5684 5687 5689 5691 5692 5693 5693 5694 5695 5695 5695 5694 5692
5610 5610 5611 5612 5613 5615 5615 5617 5618 5619 5621 5624 5625 5626 5627 5630 5632 5634 5637 5640 5643 5646 5648 5650 5653 5657 5660 5664 5668 5672 5674 5676 5678 5680 5682 5683 5683 5683 5684 5685 5685 5684 5683 5681
5608 5608 5609 5609 5611 5612 5613 5615 5616 5617 5618 5620 5621 5623 5625 5626 5628 5630 5632 5634 5635 5638 5641 5643 5647 5649 5652 5655 5658 5661 5664 5667 5669 5670 5671 5673 5674 5674 5674 5675 5674 5674 5672 5670
5605 5605 5607 5607 5608 5608 5611 5615 5612 5613 5615 5616 5617 5619 5620 5622 5623 5625 5627 5628 5629 5630 5633 5636 5638 5641 5644 5646 5649 5653 5655 5657 5658 5659 5661 5663 5663 5663 5664 5664 5663 5662 5660 5659
5601 5602 5604 5603 5604 5607 5607 5607 5608 5609 5610 5611 5613 5615 5616 5617 5618 5619 5621 5622 5623 5624 5625 5627 5630 5632 5634 5637 5640 5642 5644 5646 5647 5649 5651 5651 5651 5652 5652 5652 5651 5650 5650 5648
5598 5598 5597 5599 5600 5601 5601 5602 5604 5605 5605 5606 5607 5609 5611 5612 5613 5613 5614 5616 5617 5618 5619 5620 5622 5624 5626 5628 5630 5632 5634 5636 5637 5638 5638 5640 5640 5640 5641 5640 5640 5640 5639 5637
5593 5593 5594 5594 5595 5596 5595 5596 5597 5599 5599 5599 5600 5602 5603 5605 5606 5607 5608 5609 5610 5611 5612 5613 5615 5616 5618 5620 5622 5623 5624 5625 5626 5627 5628 5628 5629 5630 5630 5630 5629 5628 5627 5625
5591 5589 5590 5590 5591 5591 5591 5591 5591 5592 5593 5593 5594 5595 5596 5597 5598 5599 5601 5602 5603 5603 5604 5606 5607 5608 5609 5611 5612 5613 5614 5615 5616 5617 5618 5618 5619 5619 5619 5618 5618 5616 5615 5614
5591 5588 5587 5586 5586 5586 5586 5586 5586 5586 5586 5587 5587 5588 5588 5589 5590 5591 5591 5593 5594 5595 5596 5597 5598 5599 5600 5601 5602 5603 5604 5605 5606 5606 5607 5607 5607 5607 5607 5607 5606 5605 5604 5603
5593 5588 5585 5583 5582 5581 5580 5581 5580 5580 5580 5580 5580 5580 5580 5581 5581 5582 5583 5583 5584 5585 5587 5588 5589 5590 5591 5592 5593 5594 5595 5595 5596 5596 5596 5596 5596 5596 5596 5596 5595 5594 5593 5592
5593 5589 5585 5581 5579 5576 5575 5574 5574 5573 5573 5573 5573 5573 5573 5573 5573 5573 5574 5574 5575 5575 5576 5577 5578 5580 5581 5582 5583 5584 5584 5585 5585 5586 5585 5585 5585 5585 5584 5584 5584 5583 5582 5581
5592 5588 5584 5580 5577 5573 5570 5569 5567 5566 5565 5565 5564 5564 5564 5564 5564 5564 5564 5565 5565 5566 5566 5567 5568 5569 5569 5570 5572 5573 5574 5574 5575 5575 5574 5573 5573 5573 5573 5573 5573 5572 5571 5570
5589 5586 5582 5579 5575 5572 5568 5565 5562 5560 5559 5558 5556 5555 5555 5554 5554 5555 5555 5556 5556 5556 5556 5557 5558 5558 5559 5559 5560 5561 5562 5562 5563 5563 5563 5562 5562 5562 5562 5562 5562 5561 5561 5561
5586 5583 5580 5577 5572 5568 5565 5561 5557 5554 5551 5549 5547 5546 5544 5544 5544 5544 5545 5545 5545 5546 5546 5546 5547 5547 5547 5548 5549 5549 5549 5550 5550 5550 5551 5551 5551 5551 5551 5551 5551 5551 5551 5550
5582 5579 5576 5572 5568 5565 5561 5557 5553 5548 5545 5542 5540 5538 5536 5534 5533 5533 5532 5533 5533 5533 5534 5535 5535 5535 5535 5535 5536 5536 5537 5537 5537 5538 5538 5538 5538 5538 5539 5539 5539 5539 5539 5539
5577 5574 5570 5567 5563 5560 5556 5552 5547 5544 5540 5536 5533 5530 5528 5526 5524 5523 5522 5521 5521 5522 5522 5523 5523 5524 5524 5525 5525 5525 5525 5525 5525 5525 5526 5526 5526 5526 5526 5526 5526 5527 5527 5527
5572 5568 5564 5561 5558 5554 5550 5546 5541 5537 5533 5529 5526 5522 5520 5517 5515 5514 5513 5512 5511 5511 5510 5511 5511 5511 5512 5512 5513 5513 5514 5514 5514 5515 5515 5515 5515 5515 5515 5514 5514 5515 5514 5514
5566 5562 5559 5554 5551 5547 5542 5538 5534 5530 5526 5522 5518 5515 5512 5509 5507 5505 5503 5502 5501 5499 5499 5499 5499 5499 5500 5500 5501 5501 5502 5502 5503 5503 5503 5503 5503 5503 5503 5503 5502 5502 5502 5501
5559 5555 5551 5547 5543 5539 5535 5531 5526 5522 5518 5514 5510 5507 5504 5501 5498 5495 5493 5491 5489 5489 5488 5488 5488 5488 5489 5490 5490 5491 5491 5491 5491 5491 5491 5492 5492 5492 5492 5491 5491 5491 5490 5490
5552 5547 5543 5539 5535 5531 5527 5522 5518 5514 5510 5506 5502 5498 5495 5491 5488 5485 5483 5481 5480 5479 5478 5477 5478 5478 5479 5479 5479 5479 5480 5480 5480 5480 5480 5480 5480 5480 5480 5480 5479 5479 5478 5477
5544 5539 5535 5531 5527 5523 5519 5514 5510 5505 5501 5496 5492 5488 5485 5482 5479 5475 5472 5471 5470 5470 5469 5468 5467 5467 5467 5467 5468 5468 5469 5469 5469 5469 5469 5469 5468 5468 5468 5467 5466 5466 5464 5463
5535 5530 5526 5522 5517 5514 5509 5506 5501 5497 5492 5488 5483 5479 5475 5471 5468 5465 5462 5459 5458 5458 5459 5459 5459 5459 5458 5457 5457 5458 5458 5458 5458 5458 5458 5457 5457 5456 5455 5454 5453 5452 5450 5449
5526 5521 5517 5512 5508 5504 5500 5495 5492 5488 5484 5479 5475 5471 5467 5462 5458 5455 5451 5447 5445 5445 5447 5448 5448 5449 5448 5448 5448 5448 5448 5448 5447 5447 5446 5445 5444 5443 5442 5440 5439 5437 5435 5433
5516 5511 5506 5502 5498 5493 5489 5485 5481 5478 5474 5470 5466 5462 5459 5455 5451 5447 5444 5440 5437 5437 5437 5438 5439 5439 5438 5438 5437 5437 5437 5437 5436 5435 5434 5433 5431 5430 5428 5426 5424 5421 5418 5416